This demonstration page uses our WeatherBlox Daily Observations layout. Learn more.

Left ArrowRight Arrow

Hourly Observations for September 4, 2019

Temp ( °F °C ) Dew Point ( °F °C ) Humidity (%) Winds ( mph kmh ) Pressure ( in mb ) Visibility ( mi km ) Precip ( " mm )
12:54 am 00:54 Clear 64 17.8 56 13.3 75 75 N 7 11 30.10 1019 10 16 0.00 0.00
1:54 am 01:54 Clear 59 15 55 12.8 87 87 N 6 9 30.12 1020 10 16 0.00 0.00
2:54 am 02:54 Clear 58 14.4 54 12.2 87 87 NNW 6 9 30.13 1020 10 16 0.00 0.00
3:54 am 03:54 Clear 57 13.9 53 11.7 87 87 N 3 6 30.14 1021 10 16 0.00 0.00
4:54 am 04:54 Clear 56 13.3 53 11.7 90 90 N 5 7 30.14 1021 10 16 0.00 0.00
5:54 am 05:54 Clear 55 12.8 53 11.7 93 93 Calm 30.17 1022 10 16 0.00 0.00
6:54 am 06:54 Clear 54 12.2 51 10.6 90 90 N 5 7 30.19 1022 10 16 0.00 0.00
7:54 am 07:54 Sunny 58 14.4 54 12.2 87 87 N 5 7 30.19 1023 10 16 0.00 0.00
8:54 am 08:54 Sunny 64 17.8 56 13.3 75 75 E 6 9 30.20 1023 10 16 0.00 0.00
9:54 am 09:54 Sunny 66 18.9 56 13.3 70 70 SE 7 11 30.20 1023 10 16 0.00 0.00
10:54 am 10:54 Sunny 70 21.1 57 13.9 64 64 VRB 6 9 30.19 1022 10 16 0.00 0.00
11:54 am 11:54 Sunny 72 22.2 56 13.3 57 57 S 5 7 30.19 1022 10 16 0.00 0.00
12:54 pm 12:54 Sunny 76 24.4 56 13.3 50 50 VRB 3 6 30.18 1022 10 16 0.00 0.00
1:54 pm 13:54 Sunny 77 25 56 13.3 48 48 SSE 7 11 30.16 1022 10 16 0.00 0.00
2:54 pm 14:54 Sunny 80 26.7 58 14.4 47 47 undefined N/A 30.13 1020 10 16 0.00 0.00
3:54 pm 15:54 Sunny 80 26.7 56 13.3 44 44 S 5 7 30.13 1020 10 16 0.00 0.00
4:54 pm 16:54 Sunny 78 25.6 56 13.3 47 47 SSE 5 7 30.11 1020 10 16 0.00 0.00
5:54 pm 17:54 Sunny 79 26.1 57 13.9 47 47 ESE 8 13 30.11 1020 10 16 0.00 0.00
6:54 pm 18:54 Sunny 76 24.4 58 14.4 54 54 S 10 17 30.10 1019 10 16 0.00 0.00
7:54 pm 19:54 Sunny 72 22.2 59 15 64 64 SSE 8 13 30.09 1019 10 16 0.00 0.00
8:54 pm 20:54 Clear 72 22.2 59 15 64 64 SE 7 11 30.09 1019 10 16 0.00 0.00
9:54 pm 21:54 Clear 71 21.7 59 15 66 66 SE 9 15 30.08 1019 10 16 0.00 0.00
10:54 pm 22:54 Clear 70 21.1 59 15 68 68 SE 8 13 30.07 1018 10 16 0.00 0.00
11:54 pm 23:54 Clear 70 21.1 59 15 68 68 SE 9 15 30.06 1018 10 16 0.00 0.00

Powered by AerisWeather